Location: Unspecified
(0.0000°N, 0.0000°E)
Time: 07:05:28
(UTC+00:00)

Explorer 7 - Pass Details

Date: 24 November 2019
Orbit: 485 x 680 km, 50.3° (Epoch: 11 December)

Event Time Altitude Azimuth Distance (km) Brightness Sun altitude
Rises 20:02:02 0° 251° (WSW) 3,006 11.7 -31.4°
Reaches altitude 10° 20:05:23 10° 274° (W) 2,104 10.4 -32.2°
Enters shadow 20:08:03 15° 308° (NW) 1,809 9.7 -32.8°
